User: anonymous   Login
Location: Muenchen
(48.1800°N, 11.5800°E)
Time: 11:29:20
(UTC+01:00)
Language:

Tiros 1 - Orbit

View from above orbital plane
View from above orbital plane
View from above satellite
View from above satellite

Ground track
Ground track

The orbit data is extracted from the following two-line orbital elements,

1 00029U 60002B   17023.14878120 -.00000093  00000-0  17187-4 0  9994
2 00029  48.3805  45.8268 0024532 321.3955  38.5202 14.74134252 35504
Epoch (UTC): 23 January 2017 03:34:14
Eccentricity: 0.0024532
inclination: 48.3805°
perigee height: 630 km
apogee height: 665 km
right ascension of ascending node: 45.8268°
argument of perigee: 321.3955°
revolutions per day: 14.74134252
mean anomaly at epoch: 38.5202°
orbit number at epoch: 3550

The dashed part of the orbit path shows where the satellite is in the earth's shadow,  

DLR